EOS-6 (OCEANSAT-3)

Last updated on Sun Oct 06 2024 00:02:35 GMT+0000 (Coordinated Universal Time)

1 54361U 22158A 24279.51774729 .00002846 00000+0 79447-3 0 9996 2 54361 98.3542 15.0665 0000722 88.0162 272.1114 14.46985239 98221
UTC large
Height (km)
Speed (km/s)
/
Latitude / Longitude
Inclination (degrees)
Orbital Period (minutes)
Azimuth
Elevation
Range (km)
Doppler Factor

Next 0 passes for location: London (51.5072 / 0.1276)

Sorry there are no passes over London.